Location: Newark
(37.8333°N, 119.5000°W)
Time: 15:27:46
(UTC+00:00)

Transit 2A Rocket - Visible Passes

Search period start: 21 August 2019 00:00
Search period end: 31 August 2019 00:00
Orbit: 590 x 913 km, 66.7° (Epoch: 20 August)

Date Brightness Start Highest point End Pass type
(mag) Time Alt. Az. Time Alt. Az. Time Alt. Az.
21 Aug 5.8 03:38:33 10° SW 03:44:20 60° WNW 03:49:43 10° NNE visible
21 Aug 8.5 05:27:33 10° NW 05:27:55 10° NW 05:28:16 10° NW visible
21 Aug 4.9 12:24:44 10° NNW 12:29:15 69° ENE 12:33:32 10° SE visible
22 Aug 8.1 04:41:26 10° W 04:44:56 16° NW 04:48:17 10° N visible
22 Aug 6.2 11:42:27 10° NNW 11:46:39 36° NE 11:50:38 10° ESE visible
23 Aug 7.5 03:57:21 10° WSW 04:02:06 26° NW 04:06:34 10° N visible
23 Aug 7.2 11:00:30 10° N 11:03:54 20° NE 11:07:11 10° E visible
23 Aug 5.0 12:42:29 10° NW 12:46:35 37° WSW 12:50:31 10° S visible
24 Aug 6.6 03:13:55 10° SW 03:19:24 42° WNW 03:24:30 10° NNE visible
24 Aug 7.8 10:19:13 10° NNE 10:21:00 12° NE 10:22:46 10° ENE visible
24 Aug 4.4 11:59:43 10° NNW 12:04:12 76° WSW 12:08:28 10° SSE visible
25 Aug 8.3 04:18:12 10° WNW 04:20:12 12° NW 04:22:09 10° NNW visible
25 Aug 5.2 11:17:15 10° NNW 11:21:41 54° ENE 11:25:53 10° SE visible
26 Aug 7.9 03:33:19 10° W 03:37:17 19° NW 03:41:03 10° N visible
26 Aug 6.4 10:35:05 10° N 10:39:02 29° NE 10:42:48 10° ESE visible
26 Aug 5.5 12:17:53 10° NW 12:21:23 23° WSW 12:24:48 10° SSW visible
27 Aug 7.3 09:53:16 10° N 09:56:14 17° NE 09:58:16 13° E visible
27 Aug 5.2 11:34:49 10° NW 11:37:49 35° WNW 11:37:49 35° WNW visible
28 Aug 6.7 10:52:10 10° NNW 10:53:23 18° NNW 10:53:23 18° NNW visible
29 Aug 8.0 03:09:44 10° WNW 03:12:31 14° NW 03:15:12 10° NNW visible
29 Aug 7.3 10:09:48 10° NNW 10:10:17 13° NNW 10:10:17 13° NNW visible
